Regional Weather Roundup
Issued by NWS

Home | Current Version | Previous Version | Text Only | Print | Product List | Glossary On
Versions: 1 2 3 4 5 6 7 8 9 10 11 12 13 14 15 16 17 18 19 20 21 22 23 24 25 26 27 28 29 30 31 32 33 34 35 36 37 38 39 40 41 42 43 44 45 46 47 48 49 50
000
ASUS44 KLUB 310110
RWRTX
WEST TEXAS WEATHER ROUNDUP
NATIONAL WEATHER SERVICE LUBBOCK TX
800 PM CDT THU MAR 30 2017

NOTE: "FAIR" INDICATES FEW OR NO CLOUDS BELOW 12,000 FEET WITH NO
SIGNIFICANT WEATHER AND/OR OBSTRUCTIONS TO VISIBILITY.

TXZ004-006>008-010-012-014-016-OKZ002-310200-
TEXAS PANHANDLE/OKLAHOMA PANHANDLE

CITY           SKY/WX    TMP DP  RH WIND       PRES   REMARKS
AMARILLO       CLEAR     62  43  49 SE8       29.73R
BORGER         CLEAR     67  37  33 SE6       29.71S
CANADIAN       CLEAR     65  41  41 NE3       29.72R
DALHART        CLOUDY    62  44  51 SE9       29.71F
DUMAS          CLOUDY    61  39  45 SE6       29.72S
GUYMON         CLOUDY    62  43  49 SE6       29.70S
HEREFORD       CLEAR     64  46  51 SE7       29.71F
PAMPA          CLEAR     63  37  37 E5        29.74S
PERRYTON       CLEAR     64  45  50 SE3       29.72S
$$

TXZ026-029-035-045-048-310200-
SOUTHERN PANHANDLE/SOUTH PLAINS/ROLLING PLAINS

CITY           SKY/WX    TMP DP  RH WIND       PRES   REMARKS
CHILDRESS      CLEAR     68  49  50 E5        29.70S
SEMINOLE       CLEAR     74  19  12 W7        29.73S
LUBBOCK        PTCLDY    69  38  32 SW6       29.70S
PLAINVIEW      CLEAR     64  44  48 E6        29.70S
SNYDER         CLEAR     74  39  28 S5        29.71F
$$

TXZ052-054-060>062-072-078-127-140-154-169-310200-
PERMIAN BASIN/CONCHO VALLEY/BIG COUNTRY/EDWARDS PLATEAU

CITY           SKY/WX    TMP DP  RH WIND       PRES   REMARKS
ABILENE        CLEAR     73  39  29 SW7       29.71S
BIG SPRING     CLEAR     75  28  17 SW8       29.73S
BROWNWOOD      CLEAR     73  39  29 S6        29.73S
JUNCTION       CLEAR     74  36  25 SW6       29.78R
MIDLAND        CLEAR     78  20  11 SW13      29.72S
ODESSA           N/A     79  18  10 SW9       29.73F
SAN ANGELO     CLEAR     75  36  24 S7        29.72F
SONORA         CLEAR     75  37  25 CALM      29.81S
SWEETWATER     CLEAR     73  36  25 SW8       29.74F
WINK           CLEAR     80  18  10 W12       29.70F
$$

TXZ055-058-074-075-080-082-310200-
FAR WEST/SOUTHWEST MOUNTAINS/TRANS PECOS

CITY           SKY/WX    TMP DP  RH WIND       PRES   REMARKS
ALPINE         CLEAR     73  23  15 SW12G21   29.91S
DRYDEN           N/A     83  25  12 SW12      29.74F
EL PASO        FAIR      79  11   7 SW17      29.76F
FORT STOCKTON  CLEAR     79  18  10 SW8       29.76S
GUADALUPE PASS CLEAR     67  15  13 SW31G46   29.85S
MARFA          CLEAR     70  18  13 SW10      29.89F
PECOS          CLEAR     79  24  13 SW7       29.72S
PRESIDIO       FAIR      82  21  10 S8        29.80F
$$

TXZ014-016-019-021>030-083-310200
TEXAS TECH WEST TEXAS MESONET/TEXAS PANHANDLE/NORTHERN SOUTH PLAINS

CITY           SKY/WX    TMP DP  RH WIND       PRES   REMARKS
ABERNATHY 5ENE   N/A     67  43  41 S5        29.71S
AMARILLO 9NNE    N/A     65  41  42 SE7       29.71S
AMARILLO 7SSE    N/A     60  41  48 SE6       29.73S
AMHERST 1NE      N/A     68  34  28 W6        29.71S
BOOTLEG 11WNW    N/A     60  38  43 SE9       29.73F
CANADIAN 6E      N/A     59  40  48 N6        29.70S
CAPROCK CYN SP   N/A     69  46  43 E3        29.71S
CHILDRESS 2NNE   N/A     66  44  44 E7        29.70S
CLARENDON 2WSW   N/A     63  45  51 SE9       29.72S
CLAUDE 12SW      N/A     63  40  43 SE6       29.73S
DIMMITT 2NE      N/A     63  47  56 SE6       29.72F
FLOYDADA 2NNE    N/A     68  39  33 E3        29.71S
FRIONA 2NE       N/A     63  48  58 E8        29.71F
GOODLETT 3W      N/A     67  46  46 E7        29.68S
HART 3N          N/A     65  49  56 E5        29.72S
MCLEAN 1E        N/A     66  37  33 E2        29.72R
MEMPHIS 1NE      N/A     68  50  51 SE6       29.71R
MULESHOE 2SSW    N/A     71  29  21 S5        29.70F
OLTON 6S         N/A     66  47  50 NE6       29.71S
PALO DURO SP     N/A     66  41  40 S6        29.74R
PAMPA 2E         N/A     62  37  39 E5        29.73S
PLAINVIEW 1S     N/A     69  43  40 E3        29.70F
SILVERTON 7ESE   N/A     64  49  56 E3        29.72S
TULIA 2ENE       N/A     64  53  65 E3        29.72S
TURKEY 2WSW      N/A     67  49  53 E7        29.70S
UMBARGER 3NNE    N/A     62  48  60 SE7       29.73S
$$

TXZ033>036-039>041-045>048-310200
TEXAS TECH WEST TEXAS MESONET/SOUTH PLAINS

CITY           SKY/WX    TMP DP  RH WIND       PRES   REMARKS
AIKEN 3WSW       N/A     64  50  62 E8        29.73S
ANDREWS 2NE      N/A     76  17  10 SW8       29.73S
ANTON 6SSW       N/A     67  42  39 SW6       29.70S
BROWNFIELD 2S    N/A     72  20  14 W6        29.71F
DENVR CTY 7WNW   N/A     73  19  13 SW16      29.72F
GAIL 2ESE        N/A     74  30  19 SW6       29.69F
LAMESA 2SE       N/A     70  33  25 S8        29.71F
LEVELLAND 4S     N/A     72  22  14 SW9       29.71F
LUBBOCK 3WNW     N/A     74  29  19 SW6       29.70F
MORTON 1ENE      N/A     73  22  14 SW9       29.71F
ODONNELL 1N      N/A     74  20  13 SW6       29.71F
PLAINS 3N        N/A     72  18  12 SW7       29.73S
RALLS 1SE        N/A     70  46  42 S1        29.72S
REESE CENTER     N/A     71  31  22 SW6       29.71S
SEAGRAVES 1SW    N/A     74  20  12 SW7       29.71F
SEMINOLE 2NNE    N/A     76  15   9 SW7       29.72S
SLATON 2NE       N/A     74  28  18 W2        29.71S
SNYDER 3E        N/A     74  37  26 S6        29.70F
SUNDOWN 8SW      N/A     73  19  13 SW8       29.72S
TAHOKA 3NNE      N/A     73  22  14 SW9       29.71S
WOLFFORTH 6SSW   N/A     73  29  19 SW8       29.71S
$$

TXZ031-032-036>038-042>044-310200-
TEXAS TECH WEST TEXAS MESONET/ROLLING PLAINS

CITY           SKY/WX    TMP DP  RH WIND       PRES   REMARKS
ASPERMONT 3NE    N/A     71  44  37 E6        29.67S
FLUVANNA 3WNW    N/A     74  31  20 S8        29.70F
GUTHRIE 10WSW    N/A     72  45  37 E6        29.68S
HASKELL 1NW      N/A     73  49  42 E5        29.68S
JAYTON 1SSE      N/A     73  43  34 NE7       29.68S
KNOX CITY 3NW    N/A     69  51  51 E7        29.68S
LK A HENRY 1NW   N/A     74  32  21 SW6       29.68S
NORTHFIELD 1S    N/A     71  43  36 E7        29.69S
ODELL 4ENE       N/A     67  49  51 E3        29.70F
PADUCAH 10SW     N/A     68  49  50 E6        29.69S
POST 1NE         N/A     76  25  15 SW3       29.69S
RRING SPRGS 3N   N/A     68  48  48 NE6       29.71S
SEYMOUR 3NW      N/A     70  51  50 SE6       29.68S
SPUR 1W          N/A     73  42  33 SE3       29.68S
WEINERT 2NNE     N/A     71  53  53 E5        29.68F
WHITE RVR 6NE    N/A     74  36  25 NW2       29.69S
$$

TXZ052-054-060>062-072-078-127-140-154-169-310200-
TEXAS TECH WEST TEXAS MESONET/PERMIAN BASIN/
CONCHO VALLEY/BIG COUNTRY/EDWARDS PLATEAU

CITY           SKY/WX    TMP DP  RH WIND       PRES   REMARKS
COYANOSA 2N      N/A     81  21  10 W9        29.73S
JUNCTION 1SSW    N/A     74  38  26 S2        29.78S
MERTZON 3NNE     N/A     76  39  26 S7        29.75S
SAN ANGELO 7NW   N/A     73  36  26 S6        29.72F
STRLNG CT 4WSW   N/A     76  31  18 S6        29.73S
ST LAWRNCE 5SW   N/A     76  26  16 SW10      29.73F
SWEETWATR 11SW   N/A     72  40  31 S7        29.73F
WALL 1E          N/A     76  40  27 S10       29.74F
$$

TXZ055-058-074-075-080-082-310200-
TEXAS TECH WEST TEXAS MESONET/FAR WEST/SOUTHWEST MOUNTAINS/TRANS PECOS

CITY           SKY/WX    TMP DP  RH WIND       PRES   REMARKS
PRSMN GAP BBNP   N/A     82  18   9 SW9       29.79S
GUADLPE MTN NP   N/A     65  13  13 SW18      29.86F
$$



USA.gov is the U.S. government's official web portal to all federal, state and local government web resources and services.